HS5SQI-2 Weather Reports


time (UTC)temp
F
wind
direction
speed
knots
gust
knots
rain 1hr
in
rain 24hr
in
rain mn
in
humidity
%
barometer
mb
20260504172206 82 0 0.0 0.0 0.00 0.00 0.00 88 1009.0
20260504171144 83 0 0.0 0.0 0.00 0.00 0.00 85 1009.0
20260504170122 85 0 0.0 0.0 0.00 0.00 0.00 81 1010.0
20260504150720 87 0 0.0 0.0 0.00 0.00 0.00 79 1009.0
20260504140507 87 0 0.0 0.0 0.00 0.00 0.00 80 1008.0
20260504130255 87 0 0.0 0.0 0.00 0.00 0.00 77 1007.0
20260504081238 87 0 0.0 0.0 0.00 0.00 0.00 74 1006.0
20260504080216 88 0 0.0 0.0 0.00 0.00 0.00 73 1006.0
20260504050602 103 0 0.0 0.0 0.00 0.00 0.00 49 1007.0
20260504045540 104 0 0.0 0.0 0.00 0.00 0.00 48 1007.0
20260504044518 104 0 0.0 0.0 0.00 0.00 0.00 50 1007.0
20260504043456 103 0 0.0 0.0 0.00 0.00 0.00 49 1007.0
20260504042433 103 0 0.0 0.0 0.00 0.00 0.00 49 1007.0
20260504041411 104 0 0.0 0.0 0.00 0.00 0.00 50 1008.0
20260504040349 103 0 0.0 0.0 0.00 0.00 0.00 53 1008.0
20260504035327 102 0 0.0 0.0 0.00 0.00 0.00 53 1008.0
20260504034305 102 0 0.0 0.0 0.00 0.00 0.00 54 1008.0
20260504033243 101 0 0.0 0.0 0.00 0.00 0.00 55 1008.0
20260504032221 101 0 0.0 0.0 0.00 0.00 0.00 55 1008.0
20260504031159 100 0 0.0 0.0 0.00 0.00 0.00 58 1008.0
20260504030137 98 0 0.0 0.0 0.00 0.00 0.00 60 1008.0
20260504025115 97 0 0.0 0.0 0.00 0.00 0.00 61 1008.0
20260504024053 97 0 0.0 0.0 0.00 0.00 0.00 61 1008.0
20260504023031 97 0 0.0 0.0 0.00 0.00 0.00 63 1008.0
20260504022009 97 0 0.0 0.0 0.00 0.00 0.00 63 1008.0
20260504020947 97 0 0.0 0.0 0.00 0.00 0.00 63 1008.0
20260504015925 95 0 0.0 0.0 0.00 0.00 0.00 67 1008.0
20260504014903 96 0 0.0 0.0 0.00 0.00 0.00 67 1009.0
20260504013841 95 0 0.0 0.0 0.00 0.00 0.00 69 1009.0
20260504012819 94 0 0.0 0.0 0.00 0.00 0.00 72 1009.0
20260504011757 94 0 0.0 0.0 0.00 0.00 0.00 73 1009.0
20260504010735 93 0 0.0 0.0 0.00 0.00 0.00 75 1008.0
20260504005713 93 0 0.0 0.0 0.00 0.00 0.00 75 1008.0
20260504004651 92 0 0.0 0.0 0.00 0.00 0.00 78 1008.0
20260504003629 91 0 0.0 0.0 0.00 0.00 0.00 79 1008.0
20260504002607 90 0 0.0 0.0 0.00 0.00 0.00 85 1008.0
20260504001545 88 0 0.0 0.0 0.00 0.00 0.00 92 1008.0
20260503235708 88 0 0.0 0.0 0.00 0.00 0.00 92 1007.0
20260503234645 85 0 0.0 0.0 0.00 0.00 0.00 99 1007.0
20260503210013 91 0 0.0 0.0 0.00 0.00 0.00 74 1006.0
20260503204951 91 0 0.0 0.0 0.00 0.00 0.00 74 1006.0
20260503203929 89 0 0.0 0.0 0.00 0.00 0.00 77 1006.0
20260503202907 91 0 0.0 0.0 0.00 0.00 0.00 74 1006.0
20260503201845 90 0 0.0 0.0 0.00 0.00 0.00 75 1006.0
20260503200823 91 0 0.0 0.0 0.00 0.00 0.00 73 1006.0
20260503195801 91 0 0.0 0.0 0.00 0.00 0.00 74 1006.0
20260503194739 92 0 0.0 0.0 0.00 0.00 0.00 72 1006.0
20260503193716 91 0 0.0 0.0 0.00 0.00 0.00 74 1006.0
20260503192654 92 0 0.0 0.0 0.00 0.00 0.00 72 1006.0
20260503191632 92 0 0.0 0.0 0.00 0.00 0.00 72 1007.0
20260503190610 91 0 0.0 0.0 0.00 0.00 0.00 73 1007.0
20260503185548 91 0 0.0 0.0 0.00 0.00 0.00 73 1007.0
20260503184526 90 0 0.0 0.0 0.00 0.00 0.00 76 1007.0
20260503183504 91 0 0.0 0.0 0.00 0.00 0.00 74 1007.0
20260503182442 93 0 0.0 0.0 0.00 0.00 0.00 69 1007.0
20260503181420 92 0 0.0 0.0 0.00 0.00 0.00 70 1007.0
20260503180358 92 0 0.0 0.0 0.00 0.00 0.00 71 1007.0
20260503175336 93 0 0.0 0.0 0.00 0.00 0.00 70 1007.0
20260503174314 91 0 0.0 0.0 0.00 0.00 0.00 73 1007.0
20260503173252 91 0 0.0 0.0 0.00 0.00 0.00 73 1007.0